This is the latest recevied weather packets stored in our database for station/object DB2AG-10. If no packets are shown the sender has not sent any weather packets the latest 10 day(s).
| Time | Temp. | Humidity | Pressure | Rain* | Wind** | Luminosity | Snow |
|---|---|---|---|---|---|---|---|
| 1777536104 | 16.67° C | 36% | 1032.8 hPa | - | - | - | - |
| 1777535204 | 16.11° C | 38% | 1032.7 hPa | - | - | - | - |
| 1777534304 | 15.56° C | 40% | 1032.6 hPa | - | - | - | - |
| 1777533404 | 15° C | 41% | 1032.7 hPa | - | - | - | - |
| 1777532504 | 15° C | 40% | 1032.8 hPa | - | - | - | - |
| 1777531604 | 14.44° C | 41% | 1033 hPa | - | - | - | - |
| 1777530704 | 14.44° C | 40% | 1032.9 hPa | - | - | - | - |
| 1777529804 | 14.44° C | 39% | 1032.9 hPa | - | - | - | - |
| 1777528903 | 13.89° C | 39% | 1032.8 hPa | - | - | - | - |
| 1777528004 | 13.89° C | 39% | 1032.7 hPa | - | - | - | - |
| 1777527103 | 13.89° C | 41% | 1032.6 hPa | - | - | - | - |
| 1777526203 | 13.33° C | 38% | 1032.5 hPa | - | - | - | - |
| 1777525303 | 12.78° C | 39% | 1032.4 hPa | - | - | - | - |
| 1777524403 | 12.22° C | 40% | 1032.3 hPa | - | - | - | - |
| 1777523503 | 12.22° C | 40% | 1032.1 hPa | - | - | - | - |
| 1777522603 | 12.78° C | 40% | 1032.1 hPa | - | - | - | - |
| 1777521703 | 12.78° C | 40% | 1032 hPa | - | - | - | - |
| 1777520803 | 12.78° C | 40% | 1031.8 hPa | - | - | - | - |
| 1777519902 | 12.78° C | 40% | 1031.8 hPa | - | - | - | - |
| 1777519002 | 12.78° C | 40% | 1031.8 hPa | - | - | - | - |
| 1777518102 | 13.33° C | 39% | 1031.8 hPa | - | - | - | - |
| 1777517202 | 13.33° C | 40% | 1031.7 hPa | - | - | - | - |
| 1777516302 | 13.33° C | 39% | 1031.8 hPa | - | - | - | - |
| 1777515402 | 13.33° C | 39% | 1031.7 hPa | - | - | - | - |
| 1777514502 | 13.33° C | 39% | 1031.8 hPa | - | - | - | - |
* Rain since midnight (hover to see other rain measurements)
** Current wind speed in m/s (hover to see current wind gust speed)